| time (UTC) | temp F | wind direction | speed MPH | gust MPH | rain 1hr in | rain 24hr in | rain mn in | humidity % | barometer mb |
| 20260510224539 | 68 | 306 | 0.0 | 1.0 | 0.00 | 0.00 | 0.00 | 37 | 1017.9 |
| 20260510223040 | 69 | 306 | 0.0 | 0.0 | 0.00 | 0.00 | 0.00 | 36 | 1017.9 |
| 20260510221542 | 69 | 306 | 0.0 | 2.0 | 0.00 | 0.00 | 0.00 | 32 | 1018.1 |
| 20260510220036 | 69 | 305 | 1.0 | 2.0 | 0.00 | 0.00 | 0.00 | 31 | 1018.0 |
| 20260510214537 | 69 | 306 | 0.0 | 2.0 | 0.00 | 0.00 | 0.00 | 31 | 1018.1 |
| 20260510213035 | 69 | 306 | 0.0 | 2.0 | 0.00 | 0.00 | 0.00 | 33 | 1017.9 |
| 20260510211534 | 69 | 306 | 0.0 | 1.0 | 0.00 | 0.00 | 0.00 | 33 | 1017.8 |
| 20260510210033 | 70 | 306 | 0.0 | 2.0 | 0.00 | 0.00 | 0.00 | 32 | 1017.8 |
| 20260510204533 | 71 | 306 | 0.0 | 2.0 | 0.00 | 0.00 | 0.00 | 32 | 1017.9 |
| 20260510203031 | 71 | 309 | 0.0 | 3.0 | 0.00 | 0.00 | 0.00 | 30 | 1017.9 |
| 20260510201530 | 72 | 282 | 1.0 | 2.0 | 0.00 | 0.00 | 0.00 | 31 | 1018.1 |
| 20260510200032 | 72 | 333 | 0.0 | 2.0 | 0.00 | 0.00 | 0.00 | 32 | 1018.0 |
| 20260510194542 | 72 | 355 | 0.0 | 2.0 | 0.00 | 0.00 | 0.00 | 29 | 1018.0 |
| 20260510193029 | 72 | 268 | 0.0 | 2.0 | 0.00 | 0.00 | 0.00 | 29 | 1018.1 |
| 20260510191531 | 73 | 268 | 0.0 | 1.0 | 0.00 | 0.00 | 0.00 | 27 | 1018.2 |
| 20260510190029 | 73 | 268 | 0.0 | 2.0 | 0.00 | 0.00 | 0.00 | 28 | 1018.2 |
| 20260510184526 | 72 | 268 | 0.0 | 3.0 | 0.00 | 0.00 | 0.00 | 28 | 1018.3 |
| 20260510183024 | 72 | 268 | 0.0 | 2.0 | 0.00 | 0.00 | 0.00 | 29 | 1018.5 |
| 20260510181522 | 71 | 268 | 0.0 | 2.0 | 0.00 | 0.00 | 0.00 | 26 | 1018.5 |
| 20260510180018 | 70 | 268 | 0.0 | 4.0 | 0.00 | 0.00 | 0.00 | 30 | 1018.6 |
| 20260510174515 | 69 | 244 | 0.0 | 2.0 | 0.00 | 0.00 | 0.00 | 29 | 1018.7 |
| 20260510173014 | 67 | 244 | 0.0 | 2.0 | 0.00 | 0.00 | 0.00 | 35 | 1018.6 |
| 20260510171507 | 65 | 244 | 0.0 | 1.0 | 0.00 | 0.00 | 0.00 | 35 | 1018.8 |
| 20260510170004 | 64 | 333 | 0.0 | 2.0 | 0.00 | 0.00 | 0.00 | 35 | 1018.9 |
| 20260510164501 | 63 | 38 | 1.0 | 3.0 | 0.00 | 0.00 | 0.00 | 33 | 1018.9 |
| 20260510163122 | 63 | 30 | 0.0 | 2.0 | 0.00 | 0.00 | 0.00 | 36 | 1018.9 |
| 20260510161605 | 62 | 14 | 0.0 | 3.0 | 0.00 | 0.00 | 0.00 | 34 | 1019.1 |
| 20260510160106 | 62 | 27 | 0.0 | 3.0 | 0.00 | 0.00 | 0.00 | 38 | 1019.0 |
| 20260510154553 | 61 | 279 | 0.0 | 2.0 | 0.00 | 0.00 | 0.00 | 39 | 1019.0 |
| 20260510153055 | 60 | 276 | 0.0 | 4.0 | 0.00 | 0.00 | 0.00 | 45 | 1019.0 |
| 20260510151550 | 59 | 301 | 0.0 | 2.0 | 0.00 | 0.00 | 0.00 | 50 | 1018.9 |
| 20260510150045 | 58 | 277 | 0.0 | 1.0 | 0.00 | 0.00 | 0.00 | 51 | 1019.0 |
| 20260510144546 | 57 | 277 | 0.0 | 2.0 | 0.00 | 0.00 | 0.00 | 56 | 1019.0 |
| 20260510143049 | 57 | 277 | 0.0 | 1.0 | 0.00 | 0.00 | 0.00 | 56 | 1019.0 |
| 20260510141540 | 56 | 277 | 1.0 | 4.0 | 0.00 | 0.00 | 0.00 | 53 | 1019.0 |
| 20260510140032 | 56 | 272 | 0.0 | 3.0 | 0.00 | 0.00 | 0.00 | 51 | 1018.8 |
| 20260510134530 | 55 | 125 | 0.0 | 2.0 | 0.00 | 0.00 | 0.00 | 54 | 1018.9 |
| 20260510133033 | 54 | 113 | 0.0 | 1.0 | 0.00 | 0.00 | 0.00 | 57 | 1018.7 |
| 20260510131529 | 54 | 113 | 0.0 | 1.0 | 0.00 | 0.00 | 0.00 | 63 | 1018.8 |
| 20260510130022 | 53 | 113 | 0.0 | 0.0 | 0.00 | 0.00 | 0.00 | 63 | 1018.6 |
| 20260510124524 | 53 | 113 | 0.0 | 0.0 | 0.00 | 0.00 | 0.00 | 62 | 1018.4 |
| 20260510123019 | 52 | 113 | 0.0 | 0.0 | 0.00 | 0.00 | 0.00 | 59 | 1018.4 |
| 20260510121518 | 52 | 113 | 0.0 | 0.0 | 0.00 | 0.00 | 0.00 | 58 | 1018.1 |
| 20260510120017 | 52 | 113 | 0.0 | 0.0 | 0.00 | 0.00 | 0.00 | 59 | 1017.9 |
| 20260510114514 | 52 | 113 | 0.0 | 0.0 | 0.00 | 0.00 | 0.00 | 59 | 1017.7 |
| 20260510113014 | 52 | 113 | 0.0 | 0.0 | 0.00 | 0.00 | 0.00 | 60 | 1017.5 |
| 20260510111511 | 51 | 113 | 0.0 | 0.0 | 0.00 | 0.00 | 0.00 | 61 | 1017.3 |
| 20260510110014 | 51 | 113 | 0.0 | 0.0 | 0.00 | 0.00 | 0.00 | 62 | 1017.0 |
| 20260510104509 | 51 | 113 | 0.0 | 0.0 | 0.00 | 0.00 | 0.00 | 64 | 1016.7 |
| 20260510103006 | 51 | 113 | 0.0 | 0.0 | 0.00 | 0.00 | 0.00 | 64 | 1016.6 |
| 20260510101504 | 51 | 113 | 0.0 | 0.0 | 0.00 | 0.00 | 0.00 | 64 | 1016.4 |
| 20260510100002 | 51 | 113 | 0.0 | 0.0 | 0.00 | 0.00 | 0.00 | 65 | 1016.2 |
| 20260510094601 | 51 | 113 | 0.0 | 0.0 | 0.00 | 0.00 | 0.00 | 65 | 1016.2 |
| 20260510093109 | 51 | 113 | 0.0 | 0.0 | 0.00 | 0.00 | 0.00 | 64 | 1016.1 |
| 20260510091559 | 51 | 113 | 0.0 | 0.0 | 0.00 | 0.00 | 0.00 | 64 | 1016.0 |
| 20260510090056 | 51 | 113 | 0.0 | 0.0 | 0.00 | 0.00 | 0.00 | 66 | 1015.8 |
| 20260510084559 | 51 | 113 | 0.0 | 0.0 | 0.00 | 0.00 | 0.00 | 66 | 1015.6 |
| 20260510083055 | 51 | 113 | 0.0 | 0.0 | 0.00 | 0.00 | 0.00 | 67 | 1015.4 |
| 20260510081622 | 51 | 113 | 0.0 | 1.0 | 0.00 | 0.00 | 0.00 | 67 | 1015.5 |
| 20260510080056 | 51 | 113 | 0.0 | 2.0 | 0.00 | 0.00 | 0.00 | 66 | 1015.3 |
| 20260510074551 | 52 | 113 | 0.0 | 1.0 | 0.00 | 0.00 | 0.00 | 65 | 1015.1 |
| 20260510073058 | 52 | 113 | 0.0 | 1.0 | 0.00 | 0.00 | 0.00 | 64 | 1015.0 |
| 20260510071546 | 53 | 113 | 0.0 | 0.0 | 0.00 | 0.00 | 0.00 | 63 | 1014.8 |
| 20260510070045 | 53 | 113 | 0.0 | 0.0 | 0.00 | 0.00 | 0.00 | 62 | 1014.7 |
| 20260510064554 | 53 | 113 | 0.0 | 0.0 | 0.00 | 0.00 | 0.00 | 61 | 1014.7 |
| 20260510063046 | 53 | 113 | 0.0 | 0.0 | 0.00 | 0.00 | 0.00 | 60 | 1014.7 |
| 20260510061546 | 54 | 113 | 0.0 | 2.0 | 0.00 | 0.00 | 0.00 | 60 | 1014.8 |
| 20260510060047 | 54 | 113 | 0.0 | 0.0 | 0.00 | 0.00 | 0.00 | 60 | 1015.1 |
| 20260510054539 | 54 | 113 | 0.0 | 0.0 | 0.00 | 0.00 | 0.00 | 59 | 1015.4 |
| 20260510053043 | 54 | 113 | 0.0 | 0.0 | 0.00 | 0.00 | 0.00 | 60 | 1015.5 |
| 20260510051543 | 54 | 113 | 0.0 | 0.0 | 0.00 | 0.00 | 0.00 | 60 | 1015.7 |
| 20260510050036 | 54 | 113 | 0.0 | 2.0 | 0.00 | 0.00 | 0.00 | 60 | 1015.5 |
| 20260510044546 | 54 | 112 | 0.0 | 1.0 | 0.00 | 0.00 | 0.00 | 59 | 1015.5 |
| 20260510043042 | 54 | 112 | 0.0 | 0.0 | 0.00 | 0.00 | 0.00 | 60 | 1015.3 |
| 20260510041534 | 54 | 112 | 0.0 | 0.0 | 0.00 | 0.00 | 0.00 | 60 | 1015.2 |
| 20260510040039 | 54 | 112 | 0.0 | 2.0 | 0.00 | 0.00 | 0.00 | 60 | 1015.3 |
| 20260510034529 | 54 | 112 | 0.0 | 2.0 | 0.00 | 0.00 | 0.00 | 61 | 1015.5 |
| 20260510033047 | 54 | 112 | 0.0 | 0.0 | 0.00 | 0.00 | 0.00 | 62 | 1015.3 |
| 20260510031528 | 55 | 112 | 0.0 | 0.0 | 0.00 | 0.00 | 0.00 | 62 | 1015.6 |
| 20260510030032 | 55 | 112 | 0.0 | 0.0 | 0.00 | 0.00 | 0.00 | 61 | 1015.4 |
| 20260510024526 | 55 | 112 | 0.0 | 0.0 | 0.00 | 0.00 | 0.00 | 61 | 1015.2 |
| 20260510023026 | 55 | 112 | 0.0 | 0.0 | 0.00 | 0.00 | 0.00 | 60 | 1015.1 |
| 20260510021527 | 55 | 111 | 0.0 | 0.0 | 0.00 | 0.00 | 0.00 | 59 | 1015.3 |
| 20260510020027 | 55 | 111 | 0.0 | 1.0 | 0.00 | 0.00 | 0.00 | 59 | 1014.9 |
| 20260510014528 | 55 | 82 | 0.0 | 0.0 | 0.00 | 0.00 | 0.00 | 59 | 1014.6 |
| 20260510013024 | 55 | 82 | 0.0 | 1.0 | 0.00 | 0.00 | 0.00 | 60 | 1014.4 |
| 20260510011525 | 55 | 82 | 0.0 | 0.0 | 0.00 | 0.00 | 0.00 | 60 | 1014.2 |
| 20260510010027 | 56 | 82 | 0.0 | 0.0 | 0.00 | 0.00 | 0.00 | 59 | 1014.2 |
| 20260510004523 | 56 | 82 | 0.0 | 0.0 | 0.00 | 0.00 | 0.00 | 58 | 1013.9 |
| 20260510003024 | 56 | 82 | 0.0 | 0.0 | 0.00 | 0.00 | 0.00 | 58 | 1013.7 |
| 20260510001522 | 57 | 82 | 0.0 | 0.0 | 0.00 | 0.00 | 0.00 | 57 | 1013.6 |
| 20260510000021 | 57 | 82 | 0.0 | 2.0 | 0.00 | 0.00 | 0.00 | 57 | 1013.4 |
| 20260509234530 | 58 | 82 | 1.0 | 2.0 | 0.00 | 0.00 | 0.00 | 56 | 1013.1 |
| 20260509233021 | 58 | 88 | 1.0 | 2.0 | 0.00 | 0.00 | 0.00 | 57 | 1012.9 |
| 20260509231521 | 59 | 88 | 0.0 | 2.0 | 0.00 | 0.00 | 0.00 | 57 | 1012.7 |
| 20260509230022 | 60 | 88 | 1.0 | 2.0 | 0.00 | 0.00 | 0.00 | 56 | 1012.6 |